Miscellaneous Local Product
Issued by NWS North Platte, NE

Home | Current Version | Previous Version | Text Only | Print | Product List | Glossary On
Versions: 1 2 3 4 5 6 7 8 9 10 11 12 13 14 15 16 17 18 19 20 21 22 23 24 25 26 27 28 29 30 31 32 33 34 35 36 37 38 39 40 41 42 43 44 45 46 47 48 49 50
000
AXUS43 KLBF 211510
MISLBF


WESTERN AND NORTH CENTRAL NEBRASKA HOURLY WEATHER ROUNDUP
NATIONAL WEATHER SERVICE NORTH PLATTE NE
900 AM CST TUE FEB 21 2017

NOTE: "FAIR" INDICATES FEW OR NO CLOUDS BELOW 12,000 FEET WITH NO
SIGNIFICANT WEATHER AND/OR OBSTRUCTIONS TO VISIBILITY.

NOTE: STATIONS NOT REPORTING VARIABLES SUCH AS SKY/WEATHER OR
PRESSURE ARE PROVIDED BY RAWS AND APRS NETWORKS AND ARE NOT UNDER
NATIONAL WEATHER SERVICE QUALITY CONTROL.

...OBSERVATIONS IN AND NEAR THE EASTERN PANHANDLE OF NEBRASKA...

CITY           SKY/WX    TMP DP  RH WIND       PRES   REMARKS
PINE RIDGE     SUNNY     44  31  60 NE5       29.82F
CHADRON        SUNNY     47  32  56 SW13      29.86R
ALLIANCE       SUNNY     43  28  55 SW7       29.92R
SIDNEY         SUNNY     51  29  42 W8        29.98R
CRESCENT LAKE    N/A     47  24  40 SW9         N/A
$$

...OBSERVATIONS IN NORTHERN NEBRASKA AND FAR SOUTHERN SOUTH DAKOTA...

CITY           SKY/WX    TMP DP  RH WIND       PRES   REMARKS
WINNER         FAIR      52  30  43 S8        29.78S
VALENTINE      SUNNY     48  25  40 W8        29.83S
THEDFORD       SUNNY     48  23  37 SW7       29.91R
AINSWORTH      SUNNY     49  27  41 SW13      29.85S
O`NEILL        SUNNY     48  28  46 SW10      29.87F
ORD            SUNNY     40  32  73 E6        29.91F
BROKEN BOW     SUNNY     47  25  42 SW13      29.94S
VALENTINE NWR    N/A     46  22  39 W10         N/A
BUTTE            N/A     44  27  51 S9          N/A
HALSEY           N/A     46  19  33 SW7G14      N/A
CHAMBERS         N/A     51  28  40 SW5         N/A
EWING            N/A     45  35  69 SW9         N/A
$$

...OBSERVATIONS IN SOUTHWEST NEBRASKA AND FAR NORTHEAST COLORADO...

CITY           SKY/WX    TMP DP  RH WIND       PRES   REMARKS
HOLYOKE        FAIR      46  21  36 W8        30.01R
IMPERIAL       SUNNY     43  20  39 W8        29.98S
OGALLALA       SUNNY     39  23  52 SW6       29.96S
NORTH PLATTE   SUNNY     41  26  55 CALM      29.97R
MCCOOK         SUNNY     36  25  64 SW5       30.00S WCI  32
LEXINGTON      SUNNY     46  24  41 SW8       29.98S
STAPLETON        N/A     42  25  50 CALM        N/A
GOTHENBURG       N/A     42  22  45 CALM        N/A
CALLAWAY         N/A     49  23  35 SW20        N/A
$$

...OBSERVATIONS IN CENTRAL LINCOLN COUNTY AREA...

CITY           SKY/WX    TMP DP  RH WIND       PRES   REMARKS
N.P. AIRPORT   SUNNY     41  26  55 CALM      29.97R
N.P. DOWNTOWN    N/A     42  26  52 CALM        N/A
N.P. SOUTHEAST   N/A     43  24  47 W3          N/A
N.P. HILLCREST   N/A     39  24  55 W3          N/A
$$

...SOME OBSERVATIONS FROM AROUND THE REGION...

CITY           SKY/WX    TMP DP  RH WIND       PRES   REMARKS
LARAMIE        SUNNY     42  27  55 W16G23    30.10R
CHEYENNE       SUNNY     50  25  37 W25G39    30.04R
DENVER         MOSUNNY   57  21  24 SW14      30.06R
AKRON          SUNNY     53  24  32 W16       30.03R
SCOTTSBLUFF    SUNNY     50  29  44 N3        29.93R
RAPID CITY     SUNNY     56  34  43 N5        29.75S
BISMARCK       MOSUNNY   33  30  88 SE5       29.70R WCI  29
PIERRE         SUNNY     48  33  56 W8        29.74S
SIOUX FALLS    MOSUNNY   47  36  65 SW16G25   29.83S
OMAHA          MOSUNNY   40  38  93 S6        30.00F
GRAND ISLAND   SUNNY     48  33  56 SW13      29.98S
KANSAS CITY    SUNNY     51  45  79 N8        29.99R
WICHITA        MOSUNNY   48  39  71 NW13      30.03R
OKLAHOMA CITY  SUNNY     51  44  77 NW15      30.01R
DALLAS         MOSUNNY   58  48  69 NW17      29.96R
AMARILLO       SUNNY     48  26  42 SW5       30.12R
DODGE CITY     SUNNY     47  26  44 SW8       30.08S
HAYS           SUNNY     42  31  64 W7        30.06R
GOODLAND       SUNNY     45  16  31 SW7       30.02R
$$




USA.gov is the U.S. government's official web portal to all federal, state and local government web resources and services.